sat.trackr.live / text

‹ back to catalog

STARLINK-4371

NORAD 53232 · 2022-084AV

PAYLOAD ACTIVE UNKNOWN

§ Identity

Operator
Country
US
Launch date
2022-07-22
Launch site
AFWTR
Launch vehicle
Mass (kg)
RCS (m²)

Purposes: comms

External: N2YO · Heavens-Above · Gunter

§ Orbital elements

Epoch: 2026-09-19T09:29:33.567360Z

Period
93.91 min
Inclination
97.2833°
Eccentricity
0.0001407
Mean motion
15.33435044 rev/d
Perigee alt
464.6 km
Apogee alt
466.5 km
Semi-major
6,843.7 km
B*
2.4276e-5
RAAN
317.1807°
Arg perigee
94.8045°
Mean anomaly
265.3358°
Rev number
22,852

§ Raw data

STARLINK-43711 53232U 22084AV  26262.39552740  .00000708  00000+0  24276-4 0  99932 53232  97.2833 317.1807 0001407  94.8045 265.3358 15.33435044228521

JSON: /api/v1/satellites/53232 · /tle

For live sub-satellite position, see the globe view (requires WebGL).

§ Visibility from observer

Set your observer location to see the next 7 days of passes ≥ 10°. The values pass through the URL so the page stays shareable.

No JS? Fill the form by hand. The geolocation button needs JavaScript.